KQ7A Weather Reports


time (UTC)temp
F
wind
direction
speed
knots
gust
knots
rain 1hr
in
rain 24hr
in
rain mn
in
humidity
%
barometer
mb
20260506034951 50 272 1.7 1.7 0.00 0.19 0.19 75 1015.3
20260506034449 50 254 0.9 0.9 0.00 0.19 0.19 76 1015.5
20260506033946 50 252 0.0 0.9 0.00 0.19 0.19 76 1015.2
20260506033444 50 240 0.0 0.9 0.00 0.19 0.19 77 1015.0
20260506032940 50 240 0.0 0.0 0.00 0.19 0.19 76 1015.1
20260506032437 50 261 0.9 0.9 0.00 0.19 0.19 77 1014.8
20260506031934 51 252 0.9 0.9 0.00 0.19 0.19 78 1014.7
20260506031431 50 196 0.0 0.0 0.00 0.19 0.19 80 1014.6
20260506030929 51 196 0.0 0.0 0.00 0.19 0.19 78 1014.7
20260506030427 51 207 0.0 0.0 0.00 0.19 0.19 75 1014.7
20260506025923 50 196 0.0 0.0 0.00 0.19 0.19 77 1014.6
20260506025420 51 205 0.0 0.0 0.00 0.19 0.19 76 1014.5
20260506024917 53 263 0.9 1.7 0.00 0.19 0.19 73 1014.4
20260506024414 52 264 0.0 0.0 0.00 0.19 0.19 73 1014.3
20260506023910 52 260 0.0 0.0 0.00 0.19 0.19 72 1014.3
20260506023407 52 248 0.0 0.0 0.00 0.19 0.19 75 1014.4
20260506022903 53 260 0.0 0.0 0.00 0.19 0.19 74 1014.0
20260506022401 53 233 0.0 0.0 0.00 0.19 0.19 75 1014.1
20260506021859 53 214 0.0 0.0 0.00 0.19 0.19 74 1014.1
20260506021356 54 223 0.0 0.0 0.00 0.19 0.19 72 1013.9
20260506020852 55 263 0.0 0.0 0.00 0.19 0.19 70 1014.1
20260506020351 55 223 0.0 0.0 0.00 0.19 0.19 70 1014.0
20260506015848 55 233 0.0 0.0 0.00 0.19 0.19 69 1014.1
20260506015345 55 228 0.0 0.0 0.00 0.19 0.19 67 1013.9
20260506014842 55 239 0.0 0.0 0.00 0.19 0.19 70 1013.8
20260506014338 56 211 0.0 0.0 0.00 0.19 0.19 67 1013.8
20260506013835 56 211 0.0 0.0 0.00 0.19 0.19 67 1014.0
20260506013333 57 219 0.0 0.0 0.00 0.19 0.19 69 1014.1
20260506012829 57 200 0.0 0.0 0.00 0.19 0.19 65 1013.9
20260506012326 58 208 0.0 0.0 0.00 0.19 0.19 65 1014.3
20260506011823 61 242 0.9 1.7 0.00 0.19 0.19 59 1013.9
20260506011320 65 221 0.0 0.0 0.00 0.19 0.19 53 1013.9
20260506010817 67 215 0.0 0.9 0.00 0.19 0.19 49 1014.1
20260506010315 65 207 0.0 0.0 0.00 0.19 0.19 55 1013.9
20260506005812 64 188 0.9 0.9 0.00 0.19 0.19 53 1014.1
20260506005309 64 163 0.0 0.0 0.00 0.19 0.19 46 1014.0
20260506004805 65 139 0.0 0.9 0.00 0.19 0.19 48 1014.0
20260506004303 66 81 1.7 1.7 0.00 0.19 0.19 46 1014.1
20260506003759 65 167 0.0 0.0 0.00 0.19 0.19 43 1014.3
20260506003256 66 341 0.0 0.9 0.00 0.19 0.19 43 1013.9
20260506002751 67 241 1.7 1.7 0.00 0.19 0.19 40 1014.0
20260506002247 67 76 0.9 0.9 0.00 0.19 0.19 40 1014.0
20260506001743 66 151 0.0 0.9 0.00 0.19 0.19 43 1013.9
20260506001241 66 308 0.9 1.7 0.00 0.19 0.19 40 1014.3
20260506000738 66 312 1.7 1.7 0.00 0.19 0.19 46 1014.0
20260506000235 66 216 1.7 2.6 0.00 0.19 0.19 44 1013.9
20260505235732 65 343 0.9 0.9 0.00 0.19 0.19 48 1014.1
20260505235230 65 349 1.7 1.7 0.00 0.19 0.19 43 1014.0
20260505234726 65 7 2.6 2.6 0.00 0.19 0.19 45 1014.1
20260505234224 65 46 0.9 1.7 0.00 0.19 0.19 44 1014.1
20260505233720 65 20 4.3 4.3 0.00 0.19 0.19 44 1014.0
20260505233219 65 209 2.6 5.2 0.00 0.19 0.19 46 1014.3
20260505232715 66 275 1.7 2.6 0.00 0.19 0.19 48 1014.3
20260505232213 66 342 0.9 1.7 0.00 0.19 0.19 47 1014.3
20260505231709 65 332 1.7 1.7 0.00 0.19 0.19 46 1014.1
20260505231208 64 258 0.9 1.7 0.00 0.19 0.19 45 1014.3
20260505230706 65 260 0.9 0.9 0.00 0.19 0.19 48 1014.5
20260505230202 65 44 2.6 2.6 0.00 0.19 0.19 47 1014.4
20260505225659 65 357 1.7 2.6 0.00 0.19 0.19 53 1014.7
20260505225156 64 28 3.5 5.2 0.00 0.19 0.19 50 1014.6
20260505224651 64 12 4.3 5.2 0.00 0.19 0.19 47 1014.6
20260505224149 64 7 0.9 2.6 0.00 0.19 0.19 57 1014.4
20260505223646 64 278 1.7 1.7 0.00 0.19 0.19 49 1014.5
20260505223142 64 313 1.7 2.6 0.00 0.19 0.19 49 1014.6
20260505222633 63 66 1.7 1.7 0.00 0.19 0.19 54 1014.7
20260505222129 64 63 0.9 0.9 0.00 0.19 0.19 50 1014.6
20260505221626 63 245 0.9 0.9 0.00 0.19 0.19 48 1014.7
20260505221123 62 73 2.6 2.6 0.00 0.19 0.19 54 1014.7
20260505220621 62 355 2.6 2.6 0.00 0.19 0.19 51 1014.8
20260505220118 61 25 2.6 4.3 0.00 0.19 0.19 56 1014.7
20260505215616 62 50 3.5 5.2 0.00 0.19 0.19 57 1014.6
20260505215113 62 45 1.7 1.7 0.00 0.19 0.19 56 1015.0
20260505214611 62 53 1.7 2.6 0.00 0.19 0.19 56 1015.2
20260505214108 62 0 3.5 6.1 0.00 0.19 0.19 55 1014.8
20260505213606 61 342 1.7 2.6 0.00 0.19 0.19 61 1015.0
20260505213102 61 2 3.5 4.3 0.00 0.19 0.19 55 1015.2
20260505212558 61 74 3.5 4.3 0.00 0.19 0.19 62 1015.2
20260505212056 60 129 1.7 2.6 0.00 0.19 0.19 60 1015.2
20260505211553 60 68 2.6 2.6 0.00 0.19 0.19 59 1015.3
20260505211050 59 74 1.7 2.6 0.00 0.19 0.19 68 1015.5
20260505210546 58 67 2.6 4.3 0.00 0.19 0.19 62 1015.4
20260505210044 60 97 5.2 6.1 0.00 0.19 0.19 62 1015.4
20260505205541 60 16 0.9 1.7 0.00 0.19 0.19 61 1015.3
20260505205038 59 91 0.9 0.9 0.00 0.19 0.19 71 1015.4
20260505204536 59 359 0.0 0.9 0.00 0.19 0.19 60 1015.4
20260505204033 58 12 2.6 2.6 0.00 0.19 0.19 68 1015.6
20260505203529 57 111 2.6 2.6 0.00 0.19 0.19 68 1015.6
20260505203027 57 73 2.6 5.2 0.00 0.19 0.19 67 1015.9
20260505202523 57 5 2.6 2.6 0.00 0.19 0.19 67 1015.6
20260505202018 57 345 3.5 5.2 0.00 0.19 0.19 72 1015.5
20260505201516 55 88 2.6 2.6 0.00 0.19 0.19 72 1015.8
20260505201013 56 9 0.9 1.7 0.00 0.19 0.19 75 1015.9
20260505200511 56 20 1.7 1.7 0.00 0.19 0.19 72 1015.9
20260505200008 55 292 0.9 0.9 0.00 0.19 0.19 75 1016.1
20260505195504 54 167 0.9 1.7 0.00 0.19 0.19 76 1016.0
20260505195001 54 136 0.9 1.7 0.00 0.19 0.19 75 1016.0
20260505194459 53 149 1.7 2.6 0.00 0.19 0.19 76 1015.8
20260505193958 53 111 3.5 4.3 0.00 0.19 0.19 78 1015.9
20260505193456 52 87 0.0 0.0 0.00 0.19 0.19 78 1016.0
20260505192953 51 172 0.9 1.7 0.00 0.19 0.19 79 1015.8
20260505192452 52 114 0.9 0.9 0.00 0.19 0.19 81 1015.9
20260505191949 52 99 0.9 0.9 0.00 0.19 0.19 81 1015.8
20260505191448 51 129 3.5 4.3 0.00 0.19 0.19 80 1016.0
20260505190944 51 92 0.0 0.9 0.00 0.19 0.19 80 1015.8
20260505190439 51 121 1.7 1.7 0.00 0.19 0.19 82 1015.6
20260505185935 51 173 2.6 2.6 0.00 0.19 0.19 79 1015.6
20260505185433 51 229 0.0 0.0 0.00 0.19 0.19 78 1016.0
20260505184929 50 262 0.0 0.0 0.00 0.19 0.19 80 1015.9
20260505184426 49 274 0.0 0.0 0.00 0.19 0.19 81 1016.0
20260505183922 49 285 0.0 0.0 0.00 0.19 0.19 82 1016.0
20260505183419 48 308 0.0 0.0 0.00 0.19 0.19 83 1016.1
20260505182916 48 312 0.0 0.0 0.00 0.19 0.19 83 1016.0
20260505182413 48 14 0.0 0.0 0.00 0.19 0.19 82 1015.8
20260505181909 48 3 0.0 0.0 0.00 0.19 0.19 84 1015.8
20260505181407 48 349 0.0 0.0 0.00 0.19 0.19 84 1015.9
20260505180903 48 44 0.0 0.0 0.00 0.19 0.19 86 1015.6
20260505180400 48 356 0.9 1.7 0.00 0.19 0.19 84 1015.5
20260505175856 48 305 0.0 0.0 0.00 0.19 0.19 85 1015.6
20260505175353 48 247 0.0 0.0 0.00 0.19 0.19 85 1015.5
20260505174849 48 237 0.0 0.0 0.00 0.19 0.19 85 1015.6
20260505174347 48 286 0.9 0.9 0.00 0.19 0.19 83 1015.2
20260505173843 48 224 0.0 0.0 0.00 0.19 0.19 84 1015.2
20260505173339 48 224 0.0 0.0 0.00 0.19 0.19 85 1015.0
20260505172836 48 224 0.0 0.0 0.00 0.19 0.19 87 1015.3
20260505172334 48 230 0.0 0.0 0.00 0.19 0.19 86 1015.1
20260505171834 48 227 0.0 0.0 0.00 0.19 0.19 88 1015.2
20260505171331 48 233 0.9 0.9 0.00 0.19 0.19 89 1014.7
20260505170827 47 170 0.0 0.0 0.00 0.19 0.19 90 1014.8
20260505170324 47 259 0.0 0.0 0.00 0.19 0.19 91 1015.0
20260505165819 47 241 0.0 0.9 0.00 0.19 0.19 92 1014.5
20260505165315 46 289 2.6 2.6 0.00 0.19 0.19 91 1014.7
20260505164811 46 277 2.6 2.6 0.00 0.19 0.19 92 1014.8
20260505164308 46 268 1.7 1.7 0.00 0.19 0.19 91 1014.7
20260505163806 46 270 0.9 1.7 0.00 0.19 0.19 90 1014.7
20260505163305 46 265 1.7 1.7 0.00 0.19 0.19 90 1014.7
20260505162803 46 261 1.7 1.7 0.00 0.19 0.19 89 1014.5
20260505162259 46 234 0.0 0.0 0.00 0.19 0.19 91 1014.6
20260505161756 46 226 0.0 0.0 0.00 0.19 0.19 91 1014.1
20260505161253 46 246 0.0 0.0 0.00 0.19 0.19 91 1014.3
20260505160750 45 248 0.0 0.0 0.00 0.19 0.19 91 1014.0
20260505160248 45 255 0.0 0.0 0.00 0.19 0.19 92 1013.9
20260505153227 44 157 0.9 0.9 0.00 0.19 0.19 96 1013.8
20260505152724 44 277 0.0 0.0 0.00 0.19 0.19 96 1013.9
20260505152221 44 278 0.9 0.9 0.00 0.19 0.19 96 1013.8
20260505151715 44 247 0.0 0.0 0.00 0.19 0.19 96 1014.0
20260505151213 44 247 0.0 0.0 0.00 0.19 0.19 96 1014.0
20260505150709 44 248 0.0 0.0 0.00 0.19 0.19 96 1014.1
20260505150206 44 249 0.0 0.0 0.00 0.19 0.19 96 1014.0
20260505140639 44 154 0.0 0.0 0.00 0.19 0.19 97 1013.7
20260505140136 44 155 0.0 0.0 0.00 0.19 0.19 97 1013.6
20260505124550 43 174 0.0 0.0 0.00 0.19 0.19 97 1012.3
20260505124046 43 148 0.0 0.0 0.00 0.19 0.19 98 1012.3
20260505123542 43 220 0.0 0.0 0.00 0.19 0.19 97 1012.3
20260505123039 43 221 0.0 0.0 0.00 0.19 0.19 97 1012.4
20260505122536 43 221 0.0 0.0 0.00 0.19 0.19 97 1012.1
20260505122033 43 221 0.0 0.0 0.00 0.19 0.19 97 1012.3
20260505121529 43 280 0.0 0.0 0.05 0.19 0.19 97 1012.0
20260505121026 43 219 0.0 0.0 0.05 0.19 0.19 97 1012.0
20260505120522 43 249 0.0 0.0 0.00 0.18 0.18 97 1012.1
20260505120018 43 243 0.0 0.0 0.07 0.18 0.18 97 1012.1
20260505115513 43 230 0.0 0.0 0.07 0.18 0.18 97 1012.1
20260505115011 43 230 0.0 0.0 0.00 0.17 0.17 97 1012.1
20260505114508 43 226 0.0 0.0 0.05 0.17 0.17 97 1012.1
20260505114004 43 267 0.0 0.0 0.05 0.17 0.17 97 1012.2
20260505113501 43 232 0.0 0.0 0.07 0.16 0.16 97 1012.2
20260505112956 43 230 0.0 0.0 0.07 0.16 0.16 97 1012.1
20260505112453 43 188 0.0 0.0 0.05 0.15 0.15 97 1012.1
20260505111950 43 126 0.0 0.0 0.05 0.15 0.15 97 1012.2
20260505111444 43 134 0.0 0.0 0.00 0.14 0.14 97 1012.0
20260505110941 43 115 0.0 0.0 0.07 0.14 0.14 97 1012.1
20260505110438 43 167 0.0 0.0 0.07 0.14 0.14 97 1012.3
20260505101909 43 162 0.0 0.0 0.05 0.09 0.09 97 1012.4
20260505101403 43 158 0.0 0.0 0.05 0.09 0.09 97 1012.4
20260505100859 43 139 0.0 0.0 0.07 0.08 0.08 97 1012.6
20260505100356 43 129 2.6 2.6 0.07 0.08 0.08 97 1012.8
20260505095852 43 123 1.7 1.7 0.07 0.07 0.07 97 1012.5
20260505095350 43 188 0.0 0.0 0.07 0.07 0.07 97 1012.6
20260505094845 43 206 0.0 0.0 0.05 0.06 0.06 97 1013.3
20260505094342 43 206 0.0 0.0 0.05 0.06 0.06 97 1013.1
20260505093838 43 205 0.0 0.0 0.07 0.05 0.05 97 1013.1
20260505093336 43 205 0.0 0.0 0.07 0.05 0.05 96 1012.5
20260505092833 43 221 0.0 0.0 0.05 0.04 0.04 96 1012.5
20260505092331 43 221 0.0 0.0 0.05 0.04 0.04 96 1012.4
20260505091828 43 223 0.0 0.0 0.07 0.03 0.03 96 1012.8
20260505091326 44 280 0.0 0.0 0.07 0.03 0.03 96 1013.1
20260505090824 44 273 0.0 0.0 0.00 0.02 0.02 96 1013.1
20260505090322 44 230 0.0 0.0 0.05 0.02 0.02 96 1013.1
20260505085818 44 176 0.0 0.0 0.05 0.02 0.02 96 1013.3
20260505085317 43 176 0.0 0.0 0.00 0.01 0.01 96 1013.2
20260505084814 43 176 0.0 0.0 0.00 0.01 0.01 96 1013.2
20260505084312 43 237 0.0 0.0 0.00 0.01 0.01 96 1013.0
20260505083809 43 237 0.0 0.0 0.00 0.01 0.01 96 1012.9
20260505083306 43 153 0.0 0.0 0.00 0.01 0.01 96 1013.1
20260505082803 43 146 0.0 0.0 0.00 0.01 0.01 96 1012.9
20260505082259 44 189 0.0 0.0 0.07 0.01 0.01 96 1012.8
20260505081755 43 164 0.9 1.7 0.07 0.01 0.01 96 1012.8
20260505081252 44 169 0.0 0.0 0.00 0.00 0.00 96 1013.0
20260505080749 44 200 0.0 0.0 0.00 0.00 0.00 96 1013.0
20260505080245 44 163 0.0 0.0 0.00 0.00 0.00 96 1013.3
20260505075740 44 159 0.0 0.0 0.00 0.14 0.14 96 1013.6
20260505075238 44 229 0.0 0.0 0.00 0.14 0.14 96 1013.5
20260505074735 44 236 0.0 0.0 0.00 0.14 0.14 96 1013.3
20260505074232 44 259 0.9 0.9 0.00 0.14 0.14 96 1013.5
20260505073730 44 259 0.0 0.9 0.00 0.14 0.14 96 1013.5
20260505073227 44 288 0.0 0.9 0.00 0.14 0.14 96 1013.3
20260505072724 44 286 0.0 0.0 0.00 0.14 0.14 96 1013.5
20260505072220 44 288 0.9 0.9 0.00 0.14 0.14 96 1013.2
20260505071716 44 284 1.7 1.7 0.00 0.14 0.14 96 1013.2
20260505071213 44 262 0.0 0.0 0.00 0.14 0.14 96 1013.1
20260505070710 44 262 0.0 0.0 0.00 0.14 0.14 96 1013.2
20260505070206 44 263 0.0 0.9 0.00 0.14 0.14 96 1012.9
20260505065703 44 254 0.0 0.0 0.00 0.14 0.14 96 1013.3
20260505065200 44 254 0.0 0.0 0.00 0.14 0.14 96 1013.1
20260505064656 44 252 0.0 0.0 0.00 0.14 0.14 96 1013.1
20260505064155 44 253 0.0 0.0 0.00 0.14 0.14 96 1013.0
20260505063652 44 254 0.0 0.0 0.00 0.14 0.14 96 1012.9
20260505063148 44 242 0.0 0.0 0.05 0.14 0.14 96 1012.9
20260505062644 44 248 0.0 0.0 0.05 0.14 0.14 96 1013.0
20260505062142 44 241 0.0 0.0 0.00 0.13 0.13 95 1012.9
20260505061639 44 250 0.0 0.0 0.07 0.13 0.13 95 1013.0
20260505061137 45 177 0.0 0.0 0.07 0.13 0.13 95 1013.0
20260505060634 45 253 0.0 0.0 0.05 0.12 0.12 95 1012.6
20260505060130 44 257 0.0 0.0 0.05 0.12 0.12 95 1012.9
20260505055626 45 258 0.0 0.0 0.07 0.11 0.11 95 1012.9
20260505055123 45 259 0.0 0.0 0.07 0.11 0.11 94 1013.0
20260505054620 45 263 0.0 0.0 0.05 0.10 0.10 94 1013.1
20260505054118 45 259 0.0 0.0 0.05 0.10 0.10 94 1013.2
20260505053615 45 259 0.0 0.0 0.00 0.09 0.09 93 1013.8
20260505053111 45 263 0.0 0.0 0.07 0.09 0.09 92 1013.8
20260505052608 45 264 0.9 0.9 0.07 0.09 0.09 92 1013.8
20260505052106 45 255 0.9 0.9 0.00 0.08 0.08 91 1013.7
20260505051603 46 187 0.0 0.0 0.00 0.08 0.08 90 1014.0
20260505051101 46 199 0.0 0.0 0.00 0.08 0.08 89 1013.7
20260505050558 46 182 0.0 0.0 0.07 0.08 0.08 89 1013.8
20260505041526 46 140 2.6 2.6 0.00 0.06 0.06 83 1013.2
20260505041024 46 187 0.9 0.9 0.00 0.06 0.06 86 1013.0
20260505040521 46 152 2.6 2.6 0.00 0.06 0.06 84 1013.2
20260505040018 46 213 0.0 0.0 0.00 0.06 0.06 84 1013.5
20260505035514 46 213 0.0 0.0 0.00 0.06 0.06 83 1013.2